DMSP 5D-2 F11 DEB

Satellite information

Favourite Embed

Satellite Type and Status

DEBRISIN ORBIT

Key statistics

Satellite DMSP 5D-2 F11 DEB at a glance.

Uptime

12434

Days in orbit

Revolutions

≈ 14.7

Per day

Orbit

SSO

Sun Synchronous Orbit

Inclination

98.5

Latest

Satellite identification and parameters

Extended collection of information and parameters for DMSP 5D-2 F11 DEB.

Object identification

Identified? True

Debris? True

Object name: DMSP 5D-2 F11 DEB

International designator: 1991-082BH

Object number (NORAD): 28344

Object ID (CCSDS): 28344

Country: UNITED STATES OF AMERICA (US)

Current information (Y/N): Y

RCS size: SMALL

Orbital parameters

Period: 97.999 minutes

Inclination: 98.524 deg

SMA: 7041.117 km

Apoapsis: 667.153 km

Periapsis: 658.811 km

RAAN: 71.446 deg

Eccentricy: 0.0005924

Argument of periapsis: 212.5532 deg

Mean anomaly: 178.4866 deg

Mean motion: 14.69401394 rev/day

Mean motion (dot): 0.00025774 rev/day2

B* drag term: 0.0043490606 1/REarth

Two-line elements (TLE)

Creation date: Dec. 10, 2025, 10:40 a.m.

Reference frame: TEME

Reference center: EARTH

Epoch: Dec. 10, 2025, 4:39 a.m. UTC

TLE line 0: 0 DMSP 5D-2 F11 DEB

TLE line 1: 1 28344U 91082BH 25344.19416726 .00025774 00000-0 43491-2 0 9993

TLE line 2: 2 28344 98.5240 71.4460 0005924 212.5532 178.4866 14.69401394655123

Live tracking on map

Real-time ground track for satellite DMSP 5D-2 F11 DEB.

In-orbit conjunctions

A list of the most updated potential collisions computed for object DMSP 5D-2 F11 DEB.

Target Orbit TCA Probability of collision Miss distance Type
THORAD AGENA D DEB LEO 2024-11-11 09:19:05 0.008674344 95.0 (m) DEBRIS
CZ-4 DEB SSO 2024-11-11 08:23:42 0.0002035562 491.0 (m) DEBRIS
COSMOS 1900 DEB LEO 2024-11-10 04:30:37 0.0004117728 886.0 (m) DEBRIS

Associated space launch

Military meteorological satellite

DMSP 5D-2 F11 DEB was lifted into orbit during the mission ‘Atlas E | DMSP-5D2 F11’, on board a Atlas E space rocket.

The launch took place on Nov. 28, 1991, 1:23 p.m. from Space Launch Complex 3W.

For more information about the launch, click the button.

Launch to space Atlas E | DMSP-5D2 F11
Atlas E | DMSP-5D2 F11

Agency: N/A

Status: Launch Successful

Launch date: Nov. 28, 1991, 1:23 p.m. UTC

Rocket: Atlas E

Launch pad: Space Launch Complex 3W

Location: Vandenberg SFB, CA, USA

...

Latest news about this satellite

There are no fresh news available about this satellite. Check back as we update our databases every day.


Newsletter sign-up

Weekly statistics, charts and insights to help you stay on top of the space industry.